Albuquerque, NM

7:53 AM MDT on April 29, 2017 (GMT -0600)
Albuquerque International Sunport

Weather History for KABQ - October, 2012

Change the Weather History Date:

Friday, October 5, 2012

  Actual Average Record
Temperature  
Mean Temperature 69 °F 62 °F  
Max Temperature 82 °F 73 °F 91 °F (1979)
Min Temperature 56 °F 50 °F 34 °F (1932)
Degree Days  
Heating Degree Days 0 4  
Month to date heating degree days 0 17  
Since 1 July heating degree days 8 43  
Cooling Degree Days 4 1  
Month to date cooling degree days 21 5  
Year to date cooling degree days 1764 1317  
Growing Degree Days 20 (Base 50)    
Moisture  
Dew Point 26 °F    
Average Humidity 22    
Maximum Humidity 32    
Minimum Humidity 11    
Precipitation  
Precipitation 0.00 in 0.04 in 0.80 in (1901)
Month to date precipitation 0.00 0.21  
Year to date precipitation 5.23 7.57  
Snow  
Snow 0.00 in - - ()
Month to date snowfall 0.0  
Since 1 July snowfall 0.0  
Since 1 September snowfall 0.0  
Snow Depth 0.00 in    
Sea Level Pressure  
Sea Level Pressure 29.92 in    
Wind  
Wind Speed 8 mph (SW)    
Max Wind Speed 23 mph    
Max Gust Speed 26 mph    
Visibility 10 miles    
Events      
T = Trace of Precipitation, MM = Missing Value Source: NWS Daily Summary

Daily Weather History Graph

Daily Weather History Graph

Search for Another Location

Airport or City:

Trip Planner

Search our weather history database for the weather conditions in past years. The results will help you decide how hot, cold, wet, or windy it might be!

Date:

Astronomy

Oct. 05, 2012 Rise Set
Actual Time 7:04 AM MDT 6:44 PM MDT
Civil Twilight 6:39 AM MDT 7:09 PM MDT
Nautical Twilight 6:10 AM MDT 7:38 PM MDT
Astronomical Twilight 5:40 AM MDT 8:07 PM MDT
Moon 10:20 PM MDT (10/5) 12:04 PM MDT (10/5)
Length of Visible Light 12h 29m
Length of Day
11h 39m
Waning Gibbous, 73% of the Moon is Illuminated
Oct 5
Waning Gibbous
Oct 8
Last Quarter
Oct 15
New
Oct 21
First Quarter
Oct 29
Full

Hourly Weather History & Observations

Time (MDT) Temp. Dew Point Humidity Pressure Visibility Wind Dir Wind Speed Gust Speed Precip Events Conditions
12:52 AM 70.0 °F 27.0 °F 20% 29.92 in 10.0 mi WSW 6.9 mph - N/A   Mostly Cloudy
1:52 AM 68.0 °F 26.6 °F 21% 30.18 in 10.0 mi South 8.1 mph - N/A   Mostly Cloudy
2:52 AM 66.0 °F 28.0 °F 24% 29.94 in 10.0 mi South 3.5 mph - N/A   Mostly Cloudy
3:52 AM 64.0 °F 27.0 °F 25% 29.94 in 10.0 mi South 3.5 mph - N/A   Mostly Cloudy
4:52 AM 55.9 °F 26.1 °F 32% 29.96 in 10.0 mi SE 5.8 mph - N/A   Scattered Clouds
5:52 AM 63.0 °F 28.9 °F 28% 29.95 in 10.0 mi Variable 6.9 mph - N/A   Scattered Clouds
6:52 AM 62.1 °F 30.0 °F 30% 29.97 in 10.0 mi SW 10.4 mph - N/A   Partly Cloudy
7:52 AM 61.0 °F 30.0 °F 31% 29.99 in 10.0 mi South 5.8 mph - N/A   Partly Cloudy
8:52 AM 62.6 °F 30.2 °F 30% 30.21 in 10.0 mi South 5.8 mph - N/A   Clear
9:52 AM 66.2 °F 32.0 °F 28% 30.21 in 10.0 mi SSW 3.5 mph - N/A   Clear
10:52 AM 72.0 °F 33.1 °F 24% 29.95 in 10.0 mi WSW 10.4 mph - N/A   Partly Cloudy
11:52 AM 75.0 °F 30.0 °F 19% 29.92 in 10.0 mi WSW 8.1 mph - N/A   Scattered Clouds
12:52 PM 77.0 °F 30.0 °F 18% 29.89 in 10.0 mi West 6.9 mph 18.4 mph N/A   Partly Cloudy
1:52 PM 80.1 °F 27.0 °F 14% 29.86 in 10.0 mi West 19.6 mph 26.5 mph N/A   Scattered Clouds
2:52 PM 80.1 °F 26.1 °F 14% 29.83 in 10.0 mi WSW 12.7 mph - N/A   Scattered Clouds
3:52 PM 81.0 °F 25.0 °F 13% 29.81 in 10.0 mi West 8.1 mph - N/A   Scattered Clouds
4:52 PM 81.0 °F 21.9 °F 11% 29.82 in 10.0 mi WSW 16.1 mph 26.5 mph N/A   Mostly Cloudy
5:52 PM 80.1 °F 23.0 °F 12% 29.80 in 10.0 mi WSW 12.7 mph - N/A   Mostly Cloudy
6:52 PM 77.0 °F 21.9 °F 13% 29.82 in 10.0 mi WSW 10.4 mph - N/A   Scattered Clouds
7:52 PM 73.0 °F 21.9 °F 15% 29.86 in 10.0 mi WSW 3.5 mph - N/A   Scattered Clouds
8:52 PM 72.0 °F 21.0 °F 15% 29.86 in 10.0 mi West 6.9 mph - N/A   Mostly Cloudy
9:52 PM 71.1 °F 21.9 °F 16% 29.86 in 10.0 mi West 9.2 mph - N/A   Mostly Cloudy
10:52 PM 71.1 °F 21.9 °F 16% 29.84 in 10.0 mi Calm Calm - N/A   Mostly Cloudy
11:52 PM 64.0 °F 21.0 °F 19% 29.86 in 10.0 mi SSE 8.1 mph - N/A   Mostly Cloudy